Dewpoint
47 46 46 45 47 47 47 47 47 47 47 47 47 49 50 52 53 56 55 51 48 50 51 50 49 49 47 39 41 46 44 41 37 36 34 34 33 34 32 32 30 29 29 29 30 31 32
48 48 46 46 47 47 48 47 45 47 47 47 47 48 49 51 56 55 54 49 50 52 50 49 49 50 44 34 43 44 37 36 35 34 32 31 30 32 30 29 28 29 29 28 28 28 27
48 48 47 47 46 47 46 45 46 47 46 47 46 48 49 51 54 52 48 51 51 50 49 48 49 47 36 35 41 38 36 36 33 33 33 35 35 32 33 29 31 29 26 26 27 27 26
49 50 49 48 46 47 46 46 47 47 46 46 46 48 49 52 53 51 52 51 49 47 48 48 49 45 36 40 38 36 36 35 33 33 33 35 36 34 32 32 29 26 26 22 24 25 25
51 51 51 49 47 47 47 47 46 46 46 47 47 48 53 53 51 51 50 48 48 49 49 49 45 41 33 39 35 35 35 33 33 34 35 35 34 33 32 29 26 26 20 22 23 26 24
52 52 51 48 47 47 46 44 45 46 48 49 50 50 52 51 51 49 48 48 49 49 47 47 39 32 33 32 33 35 35 34 33 35 34 34 33 29 29 25 17 18 20 21 21 22 23
53 53 49 48 47 46 45 45 46 47 49 51 52 52 51 51 49 49 50 47 38 36 37 34 32 31 32 32 33 33 35 34 34 34 30 34 30 25 25 26 25 24 24 24 25 26 26
52 50 48 48 46 46 45 46 47 46 49 51 51 52 51 50 49 48 42 37 37 37 31 35 34 29 30 31 32 33 33 31 31 29 33 31 27 28 29 28 26 26 24 22 22 21 21
48 48 47 46 45 46 45 46 46 47 49 51 51 49 49 49 46 41 39 39 40 36 28 31 33 33 33 34 31 32 33 32 30 28 28 26 23 26 26 24 23 22 21 20 20 21 22
48 47 46 46 46 46 45 45 46 48 50 49 50 49 48 46 37 40 39 41 40 35 24 28 30 33 34 34 30 32 34 32 29 26 27 24 25 25 24 22 23 20 22 21 21 22 18
48 47 47 46 46 46 46 46 49 50 50 50 48 48 47 46 41 40 41 42 38 33 12 27 31 35 33 32 29 30 34 32 26 26 26 21 23 22 22 23 24 25 26 24 26 23 21
47 47 47 47 46 46 46 47 50 50 50 50 48 47 47 44 42 42 42 39 35 19 13 26 30 30 29 31 29 29 30 31 30 27 26 26 27 26 25 25 25 26 26 25 23 22 14
47 47 47 47 47 47 48 47 50 48 47 47 47 46 45 44 39 42 40 36 18 16 25 23 26 29 29 25 26 26 26 24 22 19 18 22 23 26 28 26 28 28 24 14 10 13 11
47 46 47 47 47 49 49 49 49 47 47 48 47 45 44 44 45 42 37 25 15 21 22 27 26 26 25 25 26 24 23 22 25 24 23 19 20 23 30 30 29 29 26 18 12 11 13
50 47 47 47 47 49 47 46 46 46 47 48 45 42 41 42 45 43 30 21 20 21 25 23 23 19 21 26 21 24 22 21 25 25 21 21 19 23 27 31 33 28 22 28 21 18 17
49 49 48 49 49 49 48 47 48 47 45 49 41 39 38 43 45 40 26 24 26 29 26 28 20 22 19 22 16 19 21 23 24 25 26 24 20 21 23 33 34 32 33 23 23 14 15
49 49 49 49 50 49 47 48 46 46 45 45 39 28 33 42 43 30 24 26 27 29 28 28 24 23 23 20 22 20 14 20 26 24 26 27 24 20 25 29 29 30 29 29 27 26 20
47 49 48 49 49 49 48 48 48 47 45 41 35 23 33 42 27 28 25 26 29 30 31 27 26 25 22 23 21 20 19 21 26 25 23 26 25 21 21 27 33 34 31 31 25 24 26
44 47 49 48 50 50 50 49 48 46 45 37 33 32 37 34 25 25 26 26 27 27 25 25 25 26 23 21 19 21 22 25 26 24 24 24 22 20 17 22 28 30 32 32 32 31 25
44 46 49 51 47 48 49 49 48 46 45 37 33 24 30 31 30 26 24 24 24 26 26 26 25 25 25 22 20 19 20 24 25 25 29 27 23 23 21 25 29 26 28 32 30 26 26
44 46 50 51 49 49 49 49 47 46 46 36 32 28 31 24 26 26 26 25 24 25 26 26 25 25 25 24 23 23 25 25 27 27 28 26 23 23 23 24 29 28 28 29 29 30 27
43 45 49 50 49 50 49 49 47 46 42 31 28 28 29 26 27 26 24 25 25 25 26 26 26 27 26 25 26 25 26 24 25 27 27 28 24 26 22 23 26 25 27 28 30 31 31
43 44 46 49 50 49 49 48 47 46 35 26 30 30 28 26 26 25 23 26 26 27 27 27 27 27 27 28 29 29 29 30 29 26 26 27 26 25 19 23 24 20 25 28 29 31 32
43 43 44 46 48 48 47 47 47 45 38 30 30 29 26 22 25 24 24 25 26 26 26 27 28 27 30 31 32 31 31 30 30 29 28 26 26 26 23 21 10 18 30 30 30 29 32
44 42 43 44 46 47 48 47 46 45 44 33 33 27 25 23 24 22 21 22 26 26 25 26 28 29 31 32 27 25 25 25 26 29 28 28 26 24 22 19 19 25 29 29 28 28 33
45 42 42 43 44 46 46 48 46 46 46 37 34 34 29 23 20 22 21 22 21 23 24 26 29 30 33 30 26 22 20 20 20 22 27 26 27 25 23 19 13 23 31 33 32 25 34
48 44 42 42 43 44 46 47 47 47 46 40 37 34 30 22 22 22 20 20 24 24 24 27 28 29 31 27 24 23 21 23 19 20 22 23 23 23 22 22 21 26 32 33 22 18 35
50 46 43 42 43 43 44 46 47 48 45 40 37 35 29 24 24 26 24 22 23 24 22 26 27 28 29 25 25 25 22 21 22 21 21 18 20 21 22 20 10 32 32 24 28 35 36
51 48 45 43 43 43 43 44 46 47 46 40 36 35 34 29 23 31 29 29 27 26 25 28 27 30 30 29 28 27 23 22 20 17 22 20 22 20 23 18 25 33 31 33 35 35 36
Wind_Speed
26 25 22 17 16 15 15 15 14 11 10 12 13 14 14 12 7 16 11 10 7 8 11 10 7 7 4 6 3 2 4 4 4 4 3 4 2 1 3 5 7 9 10 12 13 16 16
27 22 20 17 14 13 12 14 14 11 10 10 12 14 13 18 15 21 11 6 9 12 9 7 5 4 2 8 1 4 2 5 7 6 6 2 2 2 4 4 4 6 12 13 9 13 13
29 22 19 17 14 10 11 12 11 7 7 7 10 13 10 14 23 23 15 2 10 9 7 5 5 2 12 5 3 4 4 3 4 5 4 6 4 2 3 6 7 9 14 17 14 10 11
32 28 12 11 8 8 10 12 11 8 9 8 10 11 12 5 22 20 10 11 9 9 7 7 4 3 5 3 3 3 3 3 2 2 2 1 4 1 2 4 8 6 6 9 2 4 4
35 29 14 6 8 9 10 10 10 9 10 9 6 6 9 27 24 17 16 13 12 10 8 7 3 4 3 4 3 1 3 2 4 1 2 1 2 1 2 1 5 3 10 10 10 3 6
37 30 13 8 8 13 14 14 12 9 10 12 6 10 21 22 22 17 18 14 14 11 5 1 2 4 2 2 1 2 4 4 1 2 3 2 2 1 1 3 7 7 12 13 15 5 19
34 26 22 14 16 16 16 14 12 15 15 17 16 24 18 20 17 15 14 12 7 6 11 6 5 8 3 1 1 1 2 2 1 3 2 2 4 11 12 13 16 15 17 23 22 15 18
33 30 23 20 22 20 19 17 16 18 15 21 23 19 21 21 12 9 3 4 4 5 10 9 3 3 1 1 2 2 3 2 2 5 2 3 12 16 12 13 15 14 19 27 22 11 13
37 30 25 27 24 20 20 20 20 19 13 16 15 16 16 14 9 7 7 5 4 4 7 2 2 3 1 2 3 2 1 3 6 8 9 12 9 10 12 15 15 18 17 24 24 22 21
32 29 25 26 24 22 21 20 20 18 14 13 19 16 13 8 6 4 4 7 5 1 5 6 3 3 3 4 1 1 2 2 3 5 5 9 6 5 7 11 7 21 10 19 21 13 11
29 26 22 23 23 21 20 20 19 16 15 17 18 12 8 4 2 4 6 8 7 3 4 5 3 1 2 1 2 3 3 3 5 6 1 5 7 11 12 11 7 15 13 18 16 17 14
26 24 21 20 21 21 20 21 25 24 21 18 15 14 9 7 7 5 9 8 3 3 4 2 0 1 1 2 1 6 1 1 2 4 4 16 5 7 9 13 17 17 17 17 5 4 8
24 21 21 21 20 19 17 17 21 23 19 16 13 18 11 6 3 10 7 4 2 6 2 2 1 1 1 3 2 7 5 6 7 9 7 10 3 4 4 11 2 1 5 8 4 2 9
21 20 19 19 19 21 24 22 21 16 10 10 6 7 7 6 8 8 4 3 7 1 4 2 2 0 1 4 3 7 3 4 2 1 4 7 5 4 4 6 6 6 2 2 6 6 16
22 20 17 15 16 17 21 19 15 11 11 9 5 3 3 7 9 4 5 7 2 4 4 5 2 2 2 1 2 4 4 2 2 1 4 5 6 5 10 8 3 1 5 3 5 5 7
21 17 16 14 11 13 11 13 16 18 17 10 3 3 2 6 4 4 5 4 2 1 5 2 0 4 1 2 1 2 2 2 3 2 3 2 7 4 7 2 4 7 5 4 4 6 8
21 17 17 15 15 7 8 10 14 17 19 12 4 4 3 9 3 6 5 4 4 3 1 2 1 2 4 1 0 1 2 3 3 2 3 3 2 7 5 4 12 6 6 4 4 5 5
16 17 13 14 11 11 11 15 20 22 18 7 3 4 6 5 4 3 4 2 2 1 2 2 2 3 2 2 2 2 3 6 7 2 3 3 3 8 6 4 3 2 9 7 5 9 7
15 15 14 5 7 9 12 16 19 22 12 1 3 2 4 3 6 6 3 4 5 4 4 4 3 3 4 2 2 4 5 4 6 2 2 0 2 9 8 4 3 6 13 14 11 4 11
13 14 16 7 1 6 10 14 19 22 15 4 3 3 5 7 2 3 3 2 2 4 2 4 3 5 6 4 3 4 3 2 5 3 2 2 2 3 2 6 5 8 15 15 12 7 14
12 14 17 4 6 5 9 12 16 18 17 2 5 1 1 2 6 4 2 0 2 3 4 4 2 5 5 3 5 2 4 5 2 2 1 1 4 4 11 14 8 4 11 16 14 17 12
11 12 15 9 5 7 9 12 15 19 7 3 1 2 2 2 2 3 4 2 2 0 2 3 2 9 6 3 2 5 5 3 3 3 0 0 4 6 6 3 11 7 7 11 10 15 10
7 9 9 11 7 6 8 10 13 18 8 4 2 2 1 2 3 4 2 2 2 1 1 1 2 4 5 4 6 10 9 9 10 6 3 2 4 5 5 6 7 6 3 1 3 8 8
4 5 6 7 10 6 7 8 11 14 9 3 1 1 0 2 1 2 3 4 4 4 3 2 1 2 1 9 11 8 10 14 16 17 9 4 4 3 7 10 2 3 4 3 3 4 6
5 5 4 4 6 6 4 5 7 9 9 3 2 1 1 1 2 3 3 3 3 3 5 4 4 3 4 5 4 5 3 4 5 11 9 12 3 5 4 5 6 4 5 3 2 3 4
9 8 6 4 3 5 7 4 4 5 9 3 2 3 2 0 4 2 3 4 3 2 4 3 3 2 2 1 1 0 2 2 4 6 2 3 5 2 4 4 3 2 4 2 2 5 2
12 10 8 6 4 4 5 6 5 2 4 2 1 2 2 2 3 4 4 3 3 3 3 4 2 1 1 1 1 2 3 2 2 3 3 3 4 10 9 6 8 4 8 5 2 2 5
14 13 11 9 7 7 6 6 7 5 2 1 1 2 1 3 6 6 4 5 2 3 4 2 1 1 2 2 2 2 3 2 2 4 3 4 4 6 3 4 5 10 6 6 3 4 7
16 16 14 11 9 8 7 6 7 6 3 2 1 0 2 4 5 3 4 4 4 4 4 3 2 2 4 3 3 1 3 2 2 5 3 5 8 3 9 6 3 11 3 6 10 10 7
Wind_Direction
343 345 346 349 346 338 343 345 344 345 351 343 350 355 350 341 282 146 155 159 147 143 137 129 124 129 140 78 110 68 77 47 10 17 15 16 2 45 243 300 327 271 282 275 274 280 276
338 347 347 353 342 352 344 346 344 346 348 351 352 359 354 354 140 134 116 139 135 124 129 128 124 132 102 86 142 129 48 11 21 39 7 21 18 316 289 271 274 306 315 299 291 278 269
336 342 344 353 1 355 359 0 358 355 351 2 351 358 346 3 112 105 94 245 123 123 126 134 138 12 73 45 112 88 45 32 35 42 48 37 60 45 347 291 332 312 308 306 279 269 270
333 330 336 348 339 353 29 14 17 8 3 352 359 350 328 127 109 107 149 143 118 112 115 117 102 3 73 6 64 59 4 0 13 15 64 25 54 82 228 306 327 303 291 283 289 323 279
334 329 326 326 351 3 4 16 27 16 5 351 335 1 80 122 121 141 131 123 125 118 120 123 60 46 46 331 64 90 72 36 195 82 341 359 40 264 305 284 315 273 270 266 297 275 291
346 353 61 110 51 28 26 33 32 19 4 328 296 140 120 126 124 124 126 135 132 106 92 175 96 76 6 109 53 53 17 16 34 186 336 354 3 297 306 155 257 273 278 275 269 290 301
6 38 101 77 57 61 38 45 37 28 18 60 119 130 126 119 127 135 124 126 96 69 39 53 61 75 87 71 85 103 223 2 317 140 247 230 252 243 239 228 243 266 278 278 281 277 279
35 77 68 60 59 55 50 42 43 25 34 82 92 113 121 124 117 113 91 77 67 136 80 26 34 94 102 196 121 98 46 0 229 234 178 301 253 256 250 253 255 264 283 285 287 273 283
67 73 69 59 58 53 48 36 34 24 61 74 88 95 101 93 81 43 62 62 348 98 93 28 320 47 354 17 47 61 77 308 261 263 246 238 250 297 265 279 281 273 272 285 282 296 283
53 66 65 65 60 53 45 35 22 28 69 69 83 72 64 78 27 4 32 332 326 121 92 6 25 14 22 34 45 204 215 223 275 269 283 259 263 277 299 295 289 294 256 261 275 297 285
41 48 57 68 67 56 43 26 18 35 77 82 80 66 58 65 94 40 320 316 319 33 72 308 16 344 342 206 235 267 216 208 248 258 223 262 295 329 311 266 264 249 275 273 269 265 298
45 46 52 55 65 66 49 36 56 70 60 60 45 31 19 28 50 341 325 331 12 15 64 319 98 35 5 341 226 322 226 333 289 315 298 275 282 289 249 276 250 267 292 289 289 253 254
38 52 52 52 44 46 57 63 67 58 49 38 40 51 49 50 25 328 339 14 57 72 307 188 168 196 169 342 351 14 8 25 30 1 356 325 261 246 239 287 282 182 328 323 315 219 247
48 41 54 58 48 54 64 86 74 59 31 8 27 41 21 49 12 5 38 50 70 178 211 183 145 95 118 13 342 346 49 14 10 84 298 357 353 216 192 216 277 282 219 234 297 305 298
39 41 38 46 67 75 88 73 61 39 24 15 89 27 43 346 355 24 62 61 141 182 166 155 60 75 338 253 295 353 10 318 277 353 18 351 276 302 244 240 190 332 234 205 256 262 281
33 40 38 33 42 89 87 60 27 4 1 15 87 86 6 308 347 66 77 105 58 91 108 82 223 214 277 280 56 12 348 212 277 339 155 248 293 260 298 346 206 249 286 304 203 304 297
28 35 35 38 38 98 73 24 10 3 354 5 45 75 285 331 102 52 81 72 63 76 151 207 273 267 273 302 115 287 290 271 234 310 220 193 193 296 304 14 354 350 332 251 235 256 299
19 29 29 38 49 43 9 358 1 357 346 39 70 72 323 3 71 45 39 12 61 21 323 323 335 332 258 194 240 277 270 226 208 224 297 238 249 282 281 301 247 312 346 338 320 327 310
10 12 10 11 40 38 11 356 350 354 352 66 69 328 317 40 74 58 23 46 53 31 19 2 332 347 317 289 308 236 239 239 224 203 260 291 306 328 356 18 3 19 342 342 331 277 343
4 2 351 342 234 8 357 354 352 355 3 16 103 89 345 35 93 110 65 65 9 10 3 2 311 329 326 294 275 307 300 264 204 236 229 166 268 247 342 286 286 340 356 0 355 352 317
2 358 2 66 118 16 356 353 347 352 355 80 33 49 136 27 11 58 86 133 92 354 354 343 328 10 332 300 333 319 321 320 227 287 136 177 283 285 278 265 247 322 9 2 5 352 10
358 3 14 43 33 2 358 358 349 352 16 79 95 146 83 168 254 33 7 99 36 139 15 339 8 336 338 324 291 299 342 322 304 340 289 243 284 324 300 311 231 270 4 6 5 351 342
345 353 5 14 17 17 9 2 354 4 29 50 358 28 164 274 157 137 199 209 145 131 199 173 305 321 312 285 286 273 260 265 263 298 316 253 300 338 279 339 308 292 246 347 330 3 332
303 334 348 354 360 359 13 16 8 19 51 104 69 92 172 258 247 200 197 197 191 166 194 279 315 291 313 317 293 264 261 267 269 270 232 274 302 273 289 338 294 272 220 258 263 332 351
241 271 296 335 344 351 327 355 0 17 35 89 136 143 115 273 252 269 225 203 221 255 218 223 219 231 320 328 341 341 339 325 280 239 242 211 283 297 284 283 292 271 248 228 221 271 331
215 238 261 289 318 334 343 321 310 4 20 93 115 139 117 165 253 273 229 201 219 240 296 238 244 215 56 42 30 4 267 308 317 315 211 206 208 261 306 300 260 227 213 153 97 289 188
213 226 239 258 277 290 320 309 328 283 13 101 187 152 123 246 246 166 226 244 171 164 225 293 274 127 72 105 245 252 267 220 277 278 240 248 251 236 257 268 285 205 176 131 319 313 140
216 224 231 234 255 276 297 323 319 246 283 93 217 169 144 242 266 203 211 203 189 182 196 190 316 274 116 159 190 253 262 276 270 234 221 227 208 238 206 259 292 169 143 195 228 142 146
218 219 229 232 238 262 283 301 321 295 210 112 307 164 134 232 261 235 242 235 230 220 196 188 208 210 187 144 213 258 267 275 252 286 217 246 207 264 214 242 234 204 212 206 169 173 179